Location: Unspecified
(48.2082°N, 0.0000°E)
Time: 08:39:07
(UTC+00:00)

Transit 4A - Pass Details

Date: 21 June 2019
Orbit: 862 x 982 km, 66.8° (Epoch: 21 July)

Event Time Altitude Azimuth Distance (km) Brightness Sun altitude
Rises 17:50:01 0° 320° (NW) 3,691 11.9 19.2°
Reaches altitude 10° 17:52:46 10° 313° (NW) 2,733 11.6 18.7°
Maximum altitude 17:58:34 38° 248° (WSW) 1,433 9.9 17.8°
Drops below altitude 10° 18:04:14 10° 182° (S) 2,660 10.2 16.9°
Sets 18:06:54 0° 175° (S) 3,582 10.7 16.4°
